Chattanooga, TN

11:48 AM EDT on October 19, 2017 (GMT -0400)
Lovell

Weather History for KCHA - November, 2013

Change the Weather History Date:

Monday, November 25, 2013

  Actual Average Record
Temperature  
Mean Temperature 37 °F 48 °F  
Max Temperature 45 °F 58 °F 74 °F (1990)
Min Temperature 29 °F 37 °F 4 °F (1950)
Degree Days  
Heating Degree Days 28 17  
Month to date heating degree days 363 325  
Since 1 July heating degree days 492 497  
Moisture  
Dew Point 18 °F    
Average Humidity 57    
Maximum Humidity 92    
Minimum Humidity 22    
Precipitation  
Precipitation 0.43 in 0.18 in 1.71 in (1902)
Month to date precipitation 1.51 4.04  
Year to date precipitation 58.12 46.62  
Snow  
Snow 0.00 in 0.00 in - ()
Month to date snowfall 0.0 0.0  
Since 1 July snowfall 0.0 0.0  
Since 1 September snowfall 0.0 0.0  
Snow Depth 0.00 in    
Sea Level Pressure  
Sea Level Pressure 30.37 in    
Wind  
Wind Speed 3 mph (ENE)    
Max Wind Speed 9 mph    
Max Gust Speed 13 mph    
Visibility 8 miles    
Events Rain    
T = Trace of Precipitation, MM = Missing Value Source: NWS Daily Summary

Daily Weather History Graph

Daily Weather History Graph

Search for Another Location

Airport or City:

Trip Planner

Search our weather history database for the weather conditions in past years. The results will help you decide how hot, cold, wet, or windy it might be!

Date:

Astronomy

Nov. 25, 2013 Rise Set
Actual Time 7:25 AM EST 5:30 PM EST
Civil Twilight 6:57 AM EST 5:57 PM EST
Nautical Twilight 6:26 AM EST 6:28 PM EST
Astronomical Twilight 5:56 AM EST 6:59 PM EST
Moon No Moon Rise 12:50 PM EST (11/25)
Length of Visible Light 11h 00m
Length of Day
10h 05m
Waning Gibbous, 51% of the Moon is Illuminated
Nov 25
Waning Gibbous
Nov 25
Last Quarter
Dec 2
New
Dec 9
First Quarter
Dec 17
Full

Hourly Weather History & Observations

Time (EST) Temp. Windchill Dew Point Humidity Pressure Visibility Wind Dir Wind Speed Gust Speed Precip Events Conditions
12:53 AM 30.0 °F 25.2 °F 9.0 °F 41% 30.49 in 10.0 mi NE 4.6 mph - N/A   Clear
1:53 AM 30.0 °F 26.5 °F 9.0 °F 41% 30.48 in 10.0 mi NE 3.5 mph - N/A   Clear
2:53 AM 28.9 °F - 10.0 °F 45% 30.48 in 10.0 mi Calm Calm - N/A   Clear
3:53 AM 28.9 °F - 10.0 °F 45% 30.46 in 10.0 mi Calm Calm - N/A   Clear
4:53 AM 28.9 °F - 12.0 °F 49% 30.46 in 10.0 mi Calm Calm - N/A   Clear
5:53 AM 28.9 °F - 14.0 °F 54% 30.46 in 10.0 mi Calm Calm - N/A   Scattered Clouds
6:53 AM 28.9 °F - 12.9 °F 51% 30.47 in 10.0 mi Calm Calm - N/A   Mostly Cloudy
7:53 AM 30.9 °F - 12.9 °F 47% 30.47 in 10.0 mi Calm Calm - N/A   Mostly Cloudy
8:53 AM 32.0 °F - 15.1 °F 50% 30.47 in 10.0 mi Calm Calm - N/A   Mostly Cloudy
9:53 AM 35.1 °F - 15.1 °F 44% 30.46 in 10.0 mi Calm Calm - N/A   Mostly Cloudy
10:53 AM 39.0 °F 34.8 °F 8.1 °F 28% 30.45 in 10.0 mi SE 5.8 mph - N/A   Mostly Cloudy
11:53 AM 39.9 °F 35.1 °F 8.1 °F 27% 30.42 in 10.0 mi SSE 6.9 mph - N/A   Mostly Cloudy
12:53 PM 43.0 °F 40.3 °F 7.0 °F 23% 30.38 in 10.0 mi SE 4.6 mph - N/A   Overcast
1:53 PM 43.0 °F 38.2 °F 8.1 °F 24% 30.35 in 10.0 mi SSE 8.1 mph - N/A   Overcast
2:53 PM 44.1 °F - 9.0 °F 24% 30.32 in 10.0 mi Calm Calm - N/A   Overcast
3:53 PM 45.0 °F 40.6 °F 15.1 °F 30% 30.33 in 10.0 mi SE 8.1 mph - N/A   Overcast
4:53 PM 44.1 °F 42.5 °F 16.0 °F 32% 30.31 in 10.0 mi ESE 3.5 mph - 0.00 in   Overcast
5:53 PM 42.1 °F 37.7 °F 19.9 °F 41% 30.31 in 10.0 mi NNE 6.9 mph - 0.00 in Rain Light Rain
6:53 PM 39.0 °F 36.8 °F 28.0 °F 65% 30.31 in 8.0 mi ENE 3.5 mph - 0.01 in Rain Light Rain
7:53 PM 37.0 °F 33.3 °F 28.9 °F 73% 30.31 in 9.0 mi NNE 4.6 mph - 0.04 in Rain Light Rain
8:53 PM 37.0 °F - 30.9 °F 79% 30.30 in 7.0 mi Calm Calm - 0.03 in Rain Light Rain
9:37 PM 35.6 °F - 30.2 °F 81% 30.27 in 5.0 mi Calm Calm - 0.04 in Rain Rain
9:53 PM 36.0 °F - 32.0 °F 86% 30.27 in 5.0 mi Calm Calm - 0.06 in Rain Rain
10:50 PM 35.6 °F - 32.0 °F 87% 30.23 in 2.5 mi Calm Calm - 0.12 in Rain Heavy Rain
10:53 PM 36.0 °F 33.3 °F 33.1 °F 89% 30.24 in 2.5 mi North 3.5 mph - 0.13 in Rain Heavy Rain
11:05 PM 35.6 °F 32.8 °F 32.0 °F 87% 30.23 in 2.5 mi NE 3.5 mph - 0.04 in Rain Rain
11:41 PM 35.6 °F - 32.0 °F 87% 30.22 in 1.8 mi Calm Calm - 0.12 in Rain Heavy Rain
11:53 PM 35.1 °F 32.2 °F 32.0 °F 89% 30.22 in 1.8 mi NNE 3.5 mph - 0.15 in Rain Rain